CW5391 Weather Reports


Display with metric or nautical units.
time (UTC)temp
F
wind
direction
speed
MPH
gust
MPH
rain 1hr
in
rain 24hr
in
rain mn
in
humidity
%
barometer
mb
20260906035821 60 31 0.0 2.0 0.00 0.00 0.00 93 1010.3
20260906035327 60 319 0.0 0.0 0.00 0.00 0.00 93 1010.3
20260906034824 60 319 0.0 0.0 0.00 0.00 0.00 93 1010.3
20260906034344 60 319 0.0 0.0 0.00 0.00 0.00 93 1010.2
20260906033820 60 319 0.0 1.0 0.00 0.00 0.00 93 1010.2
20260906033353 60 319 0.0 1.0 0.00 0.00 0.00 93 1010.2
20260906032822 60 319 0.0 1.0 0.00 0.00 0.00 93 1010.1
20260906032331 61 319 0.0 0.0 0.00 0.00 0.00 93 1010.1
20260906031825 61 319 0.0 0.0 0.00 0.00 0.00 93 1010.1
20260906031314 61 319 0.0 0.0 0.00 0.00 0.00 93 1010.1
20260906030815 61 319 327.0 1.0 0.00 0.00 0.00 93 1010.1
20260906030341 61 319 327.0 1.0 0.00 0.00 0.00 1010.1
20260906025813 0 0.0 0.0 0.00 0.00 0.00 1010.0
20260906025317 0 0.0 0.0 0.00 0.00 0.00 1010.0
20260906024842 0 0.0 0.0 0.00 0.00 0.00 1010.0
20260906024333 0 0.0 0.0 0.00 0.00 0.00 1009.8
20260906023812 0 0.0 0.0 0.00 0.00 0.00 1009.8
20260906023317 0 0.0 0.0 0.00 0.00 0.00 1009.8
20260906022820 0 0.0 0.0 0.00 0.00 0.00 1009.8
20260906022348 61 350 0.0 1.0 0.00 0.00 0.00 91 1009.8
20260906021819 61 350 0.0 1.0 0.00 0.00 0.00 91 1009.8
20260906021313 61 350 0.0 0.0 0.00 0.00 0.00 89 1009.7
20260906020838 62 350 1.0 2.0 0.00 0.00 0.00 89 1009.7
20260906020322 62 350 1.0 4.0 0.00 0.00 0.00 89 1009.7
20260906015825 62 350 1.0 4.0 0.00 0.00 0.00 89 1009.9
20260906015328 62 346 1.0 6.0 0.00 0.00 0.00 89 1009.9
20260906014840 62 316 2.0 6.0 0.00 0.00 0.00 88 1009.9
20260906014329 63 336 3.0 7.0 0.00 0.00 0.00 88 1010.0
20260906013834 63 302 3.0 7.0 0.00 0.00 0.00 88 1010.0
20260906013359 63 341 3.0 6.0 0.00 0.00 0.00 88 1010.0
20260906012824 63 308 3.0 8.0 0.00 0.00 0.00 87 1009.9
20260906012328 63 13 3.0 8.0 0.00 0.00 0.00 87 1009.9
20260906011813 63 319 3.0 7.0 0.00 0.00 0.00 87 1009.9
20260906011316 64 319 3.0 7.0 0.00 0.00 0.00 86 1010.0
20260906010821 64 332 3.0 7.0 0.00 0.00 0.00 86 1010.0
20260906010316 64 5 2.0 6.0 0.00 0.00 0.00 86 1010.0
20260906005823 64 91 3.0 7.0 0.00 0.00 0.00 86 1009.9
20260906005330 63 56 3.0 7.0 0.00 0.00 0.00 86 1009.9
20260906004816 63 294 3.0 8.0 0.00 0.00 0.00 87 1009.9
20260906004316 63 338 3.0 8.0 0.00 0.00 0.00 86 1009.7
20260906003840 63 303 3.0 8.0 0.00 0.00 0.00 86 1009.7
20260906003317 63 339 2.0 4.0 0.00 0.00 0.00 86 1009.7
20260906002827 63 355 1.0 6.0 0.00 0.00 0.00 86 1009.5
20260906002316 63 66 2.0 7.0 0.00 0.00 0.00 86 1009.5
20260906001844 63 5 3.0 7.0 0.00 0.00 0.00 86 1009.5
20260906001330 63 322 3.0 7.0 0.00 0.00 0.00 86 1009.5
20260906000816 63 334 2.0 4.0 0.00 0.00 0.00 86 1009.5
20260906000321 63 34 2.0 5.0 0.00 0.00 0.00 86 1009.5
20260905235833 63 345 2.0 5.0 0.00 0.00 0.00 86 1009.5
20260905235322 63 15 1.0 5.0 0.00 0.00 0.00 85 1009.5
20260905234822 63 24 1.0 4.0 0.00 0.00 0.00 85 1009.5
20260905234317 64 46 1.0 4.0 0.00 0.00 0.00 84 1009.5
20260905233820 64 46 1.0 4.0 0.00 0.00 0.00 84 1009.5
20260905233326 64 360 1.0 7.0 0.00 0.00 0.00 83 1009.5
20260905232832 64 360 2.0 7.0 0.00 0.00 0.00 83 1009.2
20260905232325 64 350 2.0 8.0 0.00 0.00 0.00 82 1009.2
20260905231829 65 355 4.0 8.0 0.00 0.00 0.00 82 1009.2
20260905231344 65 5 3.0 8.0 0.00 0.00 0.00 81 1009.0
20260905230814 65 348 3.0 5.0 0.00 0.00 0.00 81 1009.0
20260905230343 66 289 2.0 5.0 0.00 0.00 0.00 81 1009.0
20260905225826 66 334 2.0 5.0 0.00 0.00 0.00 80 1009.0
20260905225402 66 355 3.0 8.0 0.00 0.00 0.00 80 1009.0
20260905224827 67 292 4.0 8.0 0.00 0.00 0.00 79 1009.0
20260905224333 67 5 3.0 8.0 0.00 0.00 0.00 79 1008.9
20260905223823 68 20 3.0 7.0 0.00 0.00 0.00 78 1008.9
20260905223315 68 282 3.0 8.0 0.00 0.00 0.00 76 1008.9
20260905222818 68 311 3.0 8.0 0.00 0.00 0.00 77 1008.8
20260905222321 68 342 3.0 9.0 0.00 0.00 0.00 76 1008.8
20260905221830 69 277 4.0 9.0 0.00 0.00 0.00 75 1008.8
20260905221319 69 288 3.0 7.0 0.00 0.00 0.00 76 1008.7
20260905220851 69 334 4.0 7.0 0.00 0.00 0.00 75 1008.7
20260905220327 69 317 3.0 6.0 0.00 0.00 0.00 74 1008.7
20260905215842 69 5 2.0 7.0 0.00 0.00 0.00 76 1008.5
20260905215319 69 326 3.0 9.0 0.00 0.00 0.00 76 1008.5
20260905214825 69 330 4.0 10.0 0.00 0.00 0.00 75 1008.5
20260905214331 69 339 4.0 10.0 0.00 0.00 0.00 74 1008.5
20260905213839 69 315 4.0 10.0 0.00 0.00 0.00 75 1008.5
20260905213344 69 296 3.0 8.0 0.00 0.00 0.00 75 1008.5
20260905212848 69 298 4.0 9.0 0.00 0.00 0.00 74 1008.5
20260905212335 69 318 4.0 9.0 0.00 0.00 0.00 73 1008.5
20260905211815 69 296 4.0 8.0 0.00 0.00 0.00 72 1008.5
20260905211321 70 286 4.0 8.0 0.00 0.00 0.00 73 1008.4
20260905210824 70 38 4.0 8.0 0.00 0.00 0.00 73 1008.4
20260905210328 70 312 4.0 13.0 0.00 0.00 0.00 71 1008.4
20260905205827 70 5 5.0 13.0 0.00 0.00 0.00 72 1008.4
20260905205327 70 15 4.0 11.0 0.00 0.00 0.00 73 1008.4
20260905204816 70 5 4.0 14.0 0.00 0.00 0.00 72 1008.4
20260905204326 71 16 5.0 14.0 0.00 0.00 0.00 70 1008.2
20260905203838 71 266 7.0 13.0 0.00 0.00 0.00 69 1008.2
20260905203314 71 316 6.0 12.0 0.00 0.00 0.00 70 1008.2
20260905202856 71 5 4.0 10.0 0.00 0.00 0.00 72 1008.1
20260905202320 71 275 4.0 10.0 0.00 0.00 0.00 73 1008.1
20260905201832 71 335 5.0 10.0 0.00 0.00 0.00 71 1008.1
20260905201321 71 355 5.0 10.0 0.00 0.00 0.00 71 1008.0
20260905200849 71 292 5.0 10.0 0.00 0.00 0.00 74 1008.0
20260905200337 71 360 3.0 10.0 0.00 0.00 0.00 75 1008.0
20260905195815 70 348 6.0 12.0 0.00 0.00 0.00 75 1008.1
20260905195327 69 9 6.0 12.0 0.00 0.00 0.00 75 1008.1
20260905194851 69 311 4.0 8.0 0.00 0.00 0.00 76 1008.1
20260905194316 69 355 3.0 6.0 0.00 0.00 0.00 78 1008.2
20260905193827 69 360 3.0 9.0 0.00 0.00 0.00 77 1008.2
20260905193339 69 308 4.0 9.0 0.00 0.00 0.00 77 1008.2
20260905192822 69 339 5.0 10.0 0.00 0.00 0.00 76 1008.1
20260905192321 69 327 6.0 10.0 0.00 0.00 0.00 74 1008.1
20260905191825 70 334 5.0 10.0 0.00 0.00 0.00 74 1008.1
20260905191313 71 331 4.0 8.0 0.00 0.00 0.00 75 1008.1
20260905190819 71 347 4.0 8.0 0.00 0.00 0.00 74 1008.1
20260905190322 71 19 3.0 9.0 0.00 0.00 0.00 77 1008.1
20260905185828 71 327 3.0 9.0 0.00 0.00 0.00 78 1008.2
20260905185335 70 328 4.0 9.0 0.00 0.00 0.00 76 1008.2
20260905184829 70 321 4.0 9.0 0.00 0.00 0.00 76 1008.2
20260905184318 70 349 4.0 9.0 0.00 0.00 0.00 76 1008.1
20260905183836 69 333 4.0 9.0 0.00 0.00 0.00 77 1008.1
20260905183342 69 345 4.0 9.0 0.00 0.00 0.00 78 1008.1
20260905182826 69 323 4.0 9.0 0.00 0.00 0.00 79 1008.1
20260905182318 70 311 5.0 12.0 0.00 0.00 0.00 78 1008.1
20260905181824 71 303 5.0 12.0 0.00 0.00 0.00 76 1008.1
20260905181343 71 329 3.0 7.0 0.00 0.00 0.00 78 1008.1
20260905180815 70 315 3.0 8.0 0.00 0.00 0.00 78 1008.1
20260905180350 70 331 3.0 7.0 0.00 0.00 0.00 76 1008.1
20260905175818 70 67 3.0 7.0 0.00 0.00 0.00 78 1008.2
20260905175320 70 312 2.0 5.0 0.00 0.00 0.00 78 1008.2
20260905174813 70 312 3.0 7.0 0.00 0.00 0.00 80 1008.2
20260905174340 69 24 4.0 7.0 0.00 0.00 0.00 79 1008.3
20260905173826 69 323 3.0 8.0 0.00 0.00 0.00 82 1008.3
20260905173329 69 292 3.0 8.0 0.00 0.00 0.00 82 1008.3
20260905172832 68 334 3.0 8.0 0.00 0.00 0.00 83 1008.2
20260905172334 68 321 5.0 8.0 0.00 0.00 0.00 82 1008.2
20260905171817 68 338 4.0 8.0 0.00 0.00 0.00 81 1008.2
20260905171319 69 291 2.0 9.0 0.00 0.00 0.00 81 1008.2
20260905170825 69 15 3.0 9.0 0.00 0.00 0.00 80 1008.2
20260905170328 69 338 4.0 8.0 0.00 0.00 0.00 79 1008.2
20260905165814 69 30 3.0 10.0 0.00 0.00 0.00 80 1008.2
20260905165314 69 303 3.0 10.0 0.00 0.00 0.00 81 1008.2
20260905164820 69 321 3.0 11.0 0.00 0.00 0.00 80 1008.2
20260905164325 69 343 4.0 10.0 0.00 0.00 0.00 82 1008.3
20260905163814 69 305 4.0 9.0 0.00 0.00 0.00 82 1008.3
20260905163311 69 330 4.0 10.0 0.00 0.00 0.00 85 1008.3
20260905162830 69 272 4.0 8.0 0.00 0.00 0.00 84 1008.5
20260905162330 68 331 4.0 7.0 0.00 0.00 0.00 83 1008.5
20260905161813 68 324 4.0 7.0 0.00 0.00 0.00 86 1008.5
20260905161344 68 344 3.0 7.0 0.00 0.00 0.00 87 1008.5
20260905160817 67 283 3.0 7.0 0.00 0.00 0.00 90 1008.5
20260905160347 67 347 3.0 6.0 0.00 0.00 0.00 90 1008.5
20260905155847 66 333 3.0 8.0 0.00 0.00 0.00 91 1008.7
20260905155352 65 313 3.0 7.0 0.00 0.00 0.00 90 1008.7
20260905154834 65 300 3.0 6.0 0.00 0.00 0.00 91 1008.7
20260905154323 65 294 3.0 12.0 0.00 0.00 0.00 90 1008.9
20260905153814 65 349 3.0 12.0 0.00 0.00 0.00 90 1008.9
20260905153317 65 347 4.0 12.0 0.00 0.00 0.00 87 1008.9
20260905152855 66 360 4.0 12.0 0.00 0.00 0.00 86 1008.8
20260905152313 66 313 4.0 9.0 0.00 0.00 0.00 84 1008.8
20260905151820 67 304 4.0 7.0 0.00 0.00 0.00 84 1008.8
20260905151326 66 326 4.0 8.0 0.00 0.00 0.00 85 1008.8
20260905150831 66 355 4.0 8.0 0.00 0.00 0.00 85 1008.8
20260905150344 66 63 4.0 7.0 0.00 0.00 0.00 85 1008.8
20260905145824 66 310 3.0 9.0 0.00 0.00 0.00 87 1008.5
20260905145317 66 360 4.0 8.0 0.00 0.00 0.00 88 1008.5
20260905144825 66 300 3.0 8.0 0.00 0.00 0.00 87 1008.5
20260905144407 66 289 3.0 7.0 0.00 0.00 0.00 88 1008.6
20260905143847 65 331 3.0 6.0 0.00 0.00 0.00 90 1008.6
20260905143321 65 268 2.0 6.0 0.00 0.00 0.00 90 1008.6
20260905142830 65 5 2.0 6.0 0.00 0.00 0.00 89 1008.7
20260905142342 65 294 3.0 8.0 0.00 0.00 0.00 88 1008.7
20260905141824 65 312 4.0 11.0 0.00 0.00 0.00 87 1008.7
20260905141330 65 17 4.0 11.0 0.00 0.00 0.00 88 1008.7
20260905140817 65 316 3.0 8.0 0.00 0.00 0.00 88 1008.7
20260905140340 65 323 2.0 6.0 0.00 0.00 0.00 90 1008.7
20260905135829 64 314 2.0 5.0 0.00 0.00 0.00 91 1008.6
20260905135322 64 312 3.0 9.0 0.00 0.00 0.00 91 1008.6
20260905134838 64 347 3.0 9.0 0.00 0.00 0.00 93 1008.6
20260905134323 63 339 4.0 9.0 0.00 0.00 0.00 93 1008.7
20260905133815 63 355 3.0 6.0 0.00 0.00 0.00 95 1008.7
20260905133318 62 321 2.0 6.0 0.00 0.00 0.00 95 1008.7
20260905132837 62 346 2.0 5.0 0.00 0.00 0.00 96 1008.5
20260905132313 62 339 2.0 5.0 0.00 0.00 0.00 97 1008.5
20260905131822 61 29 2.0 5.0 0.00 0.00 0.00 97 1008.5
20260905131330 61 332 2.0 5.0 0.00 0.00 0.00 97 1008.5
20260905130842 61 333 1.0 4.0 0.00 0.00 0.00 98 1008.5
20260905130325 61 309 0.0 2.0 0.00 0.00 0.00 98 1008.5
20260905125816 61 309 0.0 2.0 0.00 0.00 0.00 98 1008.4
20260905125352 61 343 0.0 3.0 0.00 0.00 0.00 98 1008.4
20260905124844 61 343 0.0 3.0 0.00 0.00 0.00 98 1008.4
20260905124326 60 332 0.0 3.0 0.00 0.00 0.00 98 1008.4
20260905123829 60 332 0.0 3.0 0.00 0.00 0.00 98 1008.4
20260905123320 60 332 327.0 3.0 0.00 0.00 0.00 98 1008.4
20260905122836 60 332 327.0 0.0 0.00 0.00 0.00 98 1008.3
20260905122329 0 0.0 0.0 0.00 0.00 0.00 1008.3
20260905121832 0 0.0 0.0 0.00 0.00 0.00 1008.3
20260905121315 0 0.0 0.0 0.00 0.00 0.00 1008.1
20260905120315 0 0.0 0.0 0.00 0.00 0.00 1008.1
20260905115820 0 0.0 0.0 0.00 0.00 0.00 1007.9
20260905115323 0 0.0 0.0 0.00 0.00 0.00 1007.9
20260905114822 0 0.0 0.0 0.00 0.00 0.00 1007.9
20260905114338 0 0.0 0.0 0.00 0.00 0.00 1007.9
20260905113829 0 0.0 0.0 0.00 0.00 0.00 1007.9
20260905112840 0 0.0 0.0 0.00 0.00 0.00 1007.9
20260905112330 0 0.0 0.0 0.00 0.00 0.00 1007.9
20260905111813 0 0.0 0.0 0.00 0.00 0.00 1007.9
20260905111324 0 0.0 0.0 0.00 0.00 0.00 1007.6
20260905110848 0 0.0 0.0 0.00 0.00 0.00 1007.6
20260905110335 0 0.0 0.0 0.00 0.00 0.00 1007.6
20260905105831 0 0.0 0.0 0.00 0.00 0.00 1007.5
20260905105321 0 0.0 0.0 0.00 0.00 0.00 1007.5
20260905104824 0 0.0 0.0 0.00 0.00 0.00 1007.5
20260905103831 0 0.0 0.0 0.00 0.00 0.00 1007.4
20260905103336 0 0.0 0.0 0.00 0.00 0.00 1007.4
20260905102826 0 0.0 0.0 0.00 0.00 0.00 1007.3
20260905102324 0 0.0 0.0 0.00 0.00 0.00 1007.3
20260905101828 0 0.0 0.0 0.00 0.00 0.00 1007.3
20260905101316 0 0.0 0.0 0.00 0.00 0.00 1007.3
20260905100317 0 0.0 0.0 0.00 0.00 0.00 1007.3
20260905095821 0 0.0 0.0 0.00 0.00 0.00 1007.3
20260905095325 0 0.0 0.0 0.00 0.00 0.00 1007.3
20260905094833 0 0.0 0.0 0.00 0.00 0.00 1007.3
20260905094336 0 0.0 0.0 0.00 0.00 0.00 1007.2
20260905093841 0 0.0 0.0 0.00 0.00 0.00 1007.2
20260905093410 56 332 0.0 0.0 0.00 0.00 0.00 96 1007.2
20260905092838 56 332 0.0 0.0 0.00 0.00 0.00 96 1007.0
20260905092319 56 332 0.0 0.0 0.00 0.00 0.00 96 1007.0
20260905091850 56 332 0.0 0.0 0.00 0.00 0.00 96 1007.0
20260905091315 56 332 0.0 0.0 0.00 0.00 0.00 96 1007.1
20260905090812 56 332 0.0 0.0 0.00 0.00 0.00 96 1007.1
20260905090326 56 332 0.0 0.0 0.00 0.00 0.00 96 1007.1
20260905085827 57 332 0.0 0.0 0.00 0.00 0.00 96 1006.9
20260905085334 57 332 0.0 0.0 0.00 0.00 0.00 96 1006.9
20260905084839 57 332 0.0 0.0 0.00 0.00 0.00 96 1006.9
20260905084345 57 332 0.0 0.0 0.00 0.00 0.00 96 1006.9
20260905083837 57 332 0.0 0.0 0.00 0.00 0.00 96 1006.9
20260905083328 57 332 0.0 0.0 0.00 0.00 0.00 96 1006.9
20260905082843 57 332 0.0 0.0 0.00 0.00 0.00 96 1006.9
20260905082336 57 332 0.0 0.0 0.00 0.00 0.00 96 1006.9
20260905081819 57 332 0.0 0.0 0.00 0.00 0.00 96 1006.9
20260905081324 57 332 0.0 0.0 0.00 0.00 0.00 96 1006.9
20260905080827 57 332 0.0 0.0 0.00 0.00 0.00 96 1006.9
20260905080334 57 332 0.0 0.0 0.00 0.00 0.00 96 1006.9
20260905075836 57 332 0.0 0.0 0.00 0.00 0.00 96 1006.9
20260905075323 57 332 0.0 0.0 0.00 0.00 0.00 96 1006.9
20260905074828 57 332 0.0 0.0 0.00 0.00 0.00 96 1006.9
20260905074314 57 332 0.0 0.0 0.00 0.00 0.00 95 1007.0
20260905073821 57 332 0.0 0.0 0.00 0.00 0.00 95 1007.0
20260905073334 57 332 0.0 0.0 0.00 0.00 0.00 95 1007.0
20260905072826 58 332 0.0 0.0 0.00 0.00 0.00 95 1007.0
20260905072316 58 332 0.0 0.0 0.00 0.00 0.00 95 1007.0
20260905071825 58 332 0.0 0.0 0.00 0.00 0.00 95 1007.0
20260905071315 58 332 0.0 0.0 0.00 0.00 0.00 96 1007.3
20260905070845 58 332 0.0 0.0 0.00 0.00 0.00 96 1007.3
20260905070350 58 332 0.0 0.0 0.00 0.00 0.00 96 1007.3
20260905065813 58 332 0.0 0.0 0.00 0.00 0.00 96 1007.4
20260905065338 58 332 0.0 0.0 0.00 0.00 0.00 96 1007.4
20260905064812 58 332 0.0 0.0 0.00 0.00 0.00 95 1007.4
20260905064316 58 332 0.0 0.0 0.00 0.00 0.00 96 1007.4
20260905063818 58 332 0.0 0.0 0.00 0.00 0.00 96 1007.4
20260905063322 58 332 0.0 0.0 0.00 0.00 0.00 96 1007.4
20260905062829 58 332 0.0 0.0 0.00 0.00 0.00 95 1007.4
20260905062321 58 332 0.0 0.0 0.00 0.00 0.00 95 1007.4
20260905061826 59 332 0.0 0.0 0.00 0.00 0.00 95 1007.4
20260905061313 58 332 0.0 0.0 0.00 0.00 0.00 95 1007.5
20260905060816 59 332 0.0 0.0 0.00 0.00 0.00 95 1007.5
20260905060341 59 332 0.0 0.0 0.00 0.00 0.00 95 1007.5
20260905055846 59 332 0.0 0.0 0.00 0.00 0.00 94 1007.5
20260905055332 59 332 0.0 0.0 0.00 0.00 0.00 94 1007.5
20260905054837 59 332 0.0 0.0 0.00 0.00 0.00 94 1007.5
20260905054317 59 332 0.0 0.0 0.00 0.00 0.00 94 1007.4
20260905053824 59 332 0.0 0.0 0.00 0.00 0.00 94 1007.4
20260905053315 59 332 0.0 0.0 0.00 0.00 0.00 94 1007.4
20260905052825 60 332 0.0 0.0 0.00 0.00 0.00 93 1007.4
20260905052332 60 332 0.0 0.0 0.00 0.00 0.00 94 1007.4
20260905051821 60 332 0.0 0.0 0.00 0.00 0.00 94 1007.4
20260905051350 60 332 0.0 0.0 0.00 0.00 0.00 94 1007.5
20260905050817 60 332 0.0 0.0 0.00 0.00 0.00 94 1007.5
20260905050318 60 332 0.0 0.0 0.00 0.00 0.00 94 1007.5
20260905045825 60 332 0.0 0.0 0.00 0.00 0.00 93 1007.5
20260905045405 60 332 0.0 0.0 0.00 0.00 0.00 93 1007.5
20260905044815 61 332 0.0 0.0 0.00 0.00 0.00 93 1007.5
20260905044326 61 332 0.0 0.0 0.00 0.00 0.00 92 1007.8
20260905043832 61 332 0.0 0.0 0.00 0.00 0.00 93 1007.8
20260905043331 61 332 0.0 1.0 0.00 0.00 0.00 92 1007.8
20260905042837 61 332 0.0 1.0 0.00 0.00 0.00 92 1007.9
20260905042328 61 332 0.0 1.0 0.00 0.00 0.00 92 1007.9
20260905041831 62 332 0.0 2.0 0.00 0.00 0.00 91 1007.9
20260905041315 62 332 0.0 2.0 0.00 0.00 0.00 90 1007.8
20260905040819 62 332 0.0 2.0 0.00 0.00 0.00 90 1007.8
20260905040315 63 332 0.0 2.0 0.00 0.00 0.00 90 1007.8